This demonstration page uses our WeatherBlox Daily Observations layout. Learn more.

Left ArrowRight Arrow

39.51506, -84.39828

Hourly Observations for February 18, 2017

Temp ( °F °C ) Dew Point ( °F °C ) Humidity (%) Winds ( mph kmh ) Pressure ( in mb ) Visibility ( mi km ) Precip ( " mm )
12:53 am 00:53 Clear 48 8.9 33 0.6 56 56 SSW 10 17 29.82 1010 10 16 0.00 0.00
1:53 am 01:53 Clear 49 9.4 33 0.6 55 55 SSW 9 15 29.82 1010 10 16 0.00 0.00
2:53 am 02:53 Clear 47 8.3 32 0 56 56 SSW 8 13 29.83 1010 10 16 0.00 0.00
3:53 am 03:53 Clear 44 6.7 31 -0.6 60 60 S 7 11 29.82 1010 10 16 0.00 0.00
4:53 am 04:53 Clear 42 5.6 32 0 68 68 S 7 11 29.82 1010 10 16 0.00 0.00
5:53 am 05:53 Clear 40 4.4 31 -0.6 70 70 S 7 11 29.81 1010 10 16 0.00 0.00
6:53 am 06:53 Clear 42 5.6 32 0 68 68 S 10 17 29.82 1010 10 16 0.00 0.00
7:53 am 07:53 Sunny 42 5.6 32 0 68 68 S 7 11 29.83 1010 10 16 0.00 0.00
8:53 am 08:53 Sunny 47 8.3 33 0.6 59 59 S 7 11 29.84 1011 10 16 0.00 0.00
9:53 am 09:53 Sunny 54 12.2 35 1.7 49 49 SSW 10 17 29.83 1010 10 16 0.00 0.00
10:53 am 10:53 Sunny 55 12.8 35 1.7 47 47 WSW 10 17 29.82 1010 10 16 0.00 0.00
11:53 am 11:53 Sunny 56 13.3 37 2.8 49 49 SW 9 15 29.83 1010 10 16 0.00 0.00
12:53 pm 12:53 Sunny 58 14.4 37 2.8 46 46 SW 14 22 29.81 1009 10 16 0.00 0.00
1:53 pm 13:53 Sunny 59 15 38 3.3 46 46 SSW 13 20 29.79 1009 10 16 0.00 0.00
2:53 pm 14:53 Sunny 62 16.7 39 3.9 43 43 SSW 13 20 29.79 1009 10 16 0.00 0.00
3:53 pm 15:53 Mostly Sunny 61 16.1 39 3.9 44 44 SSW 14 22 29.79 1009 10 16 0.00 0.00
4:53 pm 16:53 Mostly Sunny 62 16.7 39 3.9 43 43 SSW 13 20 29.80 1009 10 16 0.00 0.00
5:53 pm 17:53 Cloudy 60 15.6 39 3.9 46 46 SSW 12 19 29.80 1009 10 16 0.00 0.00
6:53 pm 18:53 Cloudy 56 13.3 42 5.6 60 60 SSW 14 22 29.82 1010 10 16 0.00 0.00
7:53 pm 19:53 Cloudy 53 11.7 43 6.1 69 69 SSW 14 22 29.83 1010 10 16 0.00 0.00
8:53 pm 20:53 Cloudy 52 11.1 43 6.1 72 72 SSW 14 22 29.85 1011 10 16 0.00 0.00
9:53 pm 21:53 Partly Cloudy 50 10 44 6.7 80 80 SSW 10 17 29.87 1012 10 16 0.00 0.00
10:53 pm 22:53 Clear 49 9.4 45 7.2 86 86 SSW 10 17 29.88 1012 9 14 0.00 0.00
11:53 pm 23:53 Clear 49 9.4 45 7.2 86 86 SW 9 15 29.89 1012 8 13 0.00 0.00

Powered by AerisWeather